Simultaneous Nadir Overpasses (SNOs) Predictions

Prediction of SNOs between METOP-A and TERRA Satellite Orbit:

Table of predicted SNOs for the next 14.0 days since TLE Epoch: 4/13/2019
Index Date (METOP-A) Time (METOP-A) Lat,Lon (METOP-A) SZA (METOP-A ) Date (TERRA) Time (TERRA) Lat,Lon (TERRA) SZA (TERRA ) Distance(km) Time Diff (sec)
1 04/15/2019 00:04:34 81.45,-131.22 74.95 04/15/2019 00:05:23 81.45,-131.21 74.97 0.50 49
2 04/15/2019 00:55:14 -81.45, 36.45 105.03 04/15/2019 00:54:50 -81.44, 36.31 105.06 2.42 24
3 04/17/2019 19:38:46 81.45, -64.59 74.00 04/17/2019 19:39:38 81.46, -64.55 74.03 1.05 52
4 04/17/2019 20:29:26 -81.45, 103.12 105.98 04/17/2019 20:29:05 -81.45, 103.00 106.00 2.04 21
5 04/20/2019 15:13:00 81.45, 1.63 73.02 04/20/2019 15:13:56 81.45, 1.61 73.04 0.73 56
6 04/20/2019 16:03:40 -81.45, 169.37 106.95 04/20/2019 16:03:23 -81.44, 169.20 106.98 2.96 17
7 04/23/2019 10:47:13 81.45, 68.23 72.11 04/23/2019 10:48:14 81.45, 68.05 72.12 3.03 61
8 04/23/2019 11:37:54 -81.45,-124.38 107.90 04/23/2019 11:37:41 -81.45,-124.33 107.90 1.05 13
9 04/26/2019 06:21:26 81.45, 134.43 71.18 04/26/2019 06:22:32 81.44, 134.39 71.20 1.19 66




NCC Satellite Simultaneous Nadir Overpasses (SNOs) Prediction Service
